FW8055 Weather Reports


Display with metric or nautical units.
time (UTC)temp
F
wind
direction
speed
MPH
gust
MPH
rain 1hr
in
rain 24hr
in
rain mn
in
humidity
%
barometer
mb
20260508233045 70 331 3.0 7.0 0.00 0.00 0.00 48 1021.1
20260508231549 70 11 2.0 9.0 0.00 0.00 0.00 48 1021.1
20260508230045 70 352 3.0 7.0 0.00 0.00 0.00 49 1021.1
20260508224551 70 22 2.0 8.0 0.00 0.00 0.00 49 1021.1
20260508223042 69 5 2.0 10.0 0.00 0.00 0.00 48 1021.2
20260508221547 69 99 1.0 8.0 0.00 0.00 0.00 50 1021.3
20260508220054 68 19 1.0 6.0 0.00 0.00 0.00 51 1021.5
20260508214547 68 44 2.0 6.0 0.00 0.00 0.00 50 1021.5
20260508213047 68 219 1.0 4.0 0.00 0.00 0.00 51 1021.8
20260508211550 67 49 1.0 5.0 0.00 0.00 0.00 52 1021.9
20260508210051 66 21 1.0 8.0 0.00 0.00 0.00 55 1021.7
20260508204546 65 59 2.0 8.0 0.00 0.00 0.00 53 1022.0
20260508203046 65 336 3.0 8.0 0.00 0.00 0.00 53 1022.1
20260508201544 65 18 1.0 4.0 0.00 0.00 0.00 55 1022.0
20260508200049 64 0 0.0 6.0 0.00 0.00 0.00 55 1022.3
20260508194600 63 114 0.0 8.0 0.00 0.00 0.00 58 1022.3
20260508193105 62 81 1.0 6.0 0.00 0.00 0.00 58 1022.5
20260508191552 61 31 2.0 4.0 0.00 0.00 0.00 60 1022.6
20260508184543 60 35 3.0 7.0 0.00 0.00 0.00 61 1022.5
20260508183051 60 39 1.0 6.0 0.00 0.00 0.00 62 1022.6
20260508181554 58 74 2.0 6.0 0.00 0.00 0.00 64 1022.8
20260508180049 58 207 2.0 5.0 0.00 0.00 0.00 65 1022.9
20260508174552 57 0 0.0 4.0 0.00 0.00 0.00 69 1022.7
20260508173054 55 37 0.0 5.0 0.00 0.00 0.00 71 1022.6
20260508171555 54 26 0.0 4.0 0.00 0.00 0.00 74 1022.5
20260508170057 54 19 1.0 3.0 0.00 0.00 0.00 75 1022.3
20260508164554 53 0 0.0 3.0 0.00 0.00 0.00 77 1022.2
20260508163059 53 0 0.0 3.0 0.00 0.00 0.00 75 1022.0
20260508161553 52 43 0.0 2.0 0.00 0.00 0.00 78 1021.7
20260508160047 52 0 0.0 3.0 0.00 0.00 0.00 77 1022.2
20260508154545 52 0 0.0 3.0 0.00 0.00 0.00 76 1022.0
20260508153056 52 0 0.0 2.0 0.00 0.00 0.00 78 1022.1
20260508151544 51 190 0.0 3.0 0.00 0.00 0.00 78 1022.1
20260508150042 51 0 0.0 1.0 0.00 0.00 0.00 78 1022.0
20260508144545 50 0 0.0 4.0 0.00 0.00 0.00 81 1022.1
20260508143102 49 0 0.0 1.0 0.00 0.00 0.00 83 1022.1
20260508141544 48 0 0.0 2.0 0.00 0.00 0.00 87 1022.0
20260508140045 47 0 0.0 0.0 0.00 0.00 0.00 90 1021.9
20260508134547 46 0 0.0 0.0 0.00 0.00 0.00 90 1021.9
20260508133045 45 0 0.0 1.0 0.00 0.00 0.00 90 1021.8
20260508131549 45 0 0.0 0.0 0.00 0.00 0.00 89 1021.8
20260508130045 45 0 0.0 1.0 0.00 0.00 0.00 89 1021.4
20260508124548 46 0 0.0 0.0 0.00 0.00 0.00 88 1021.1
20260508123048 46 177 0.0 2.0 0.00 0.00 0.00 88 1020.9
20260508121547 46 0 0.0 1.0 0.00 0.00 0.00 88 1020.8
20260508120051 46 0 0.0 1.0 0.00 0.00 0.00 89 1020.8
20260508114547 46 0 0.0 2.0 0.00 0.00 0.00 90 1020.7
20260508113043 46 352 0.0 1.0 0.00 0.00 0.00 89 1020.6
20260508111549 46 0 0.0 2.0 0.00 0.00 0.00 88 1020.4
20260508110056 46 0 0.0 0.0 0.00 0.00 0.00 87 1020.1
20260508104544 47 0 0.0 0.0 0.00 0.00 0.00 87 1019.9
20260508103051 48 0 0.0 0.0 0.00 0.00 0.00 86 1019.7
20260508101554 48 0 0.0 1.0 0.00 0.00 0.00 87 1019.6
20260508100056 48 0 0.0 2.0 0.00 0.00 0.00 87 1019.4
20260508094548 48 0 0.0 0.0 0.00 0.00 0.00 86 1019.2
20260508093046 48 0 0.0 0.0 0.00 0.00 0.00 86 1019.0
20260508091604 49 0 0.0 0.0 0.00 0.00 0.00 86 1018.9
20260508090052 49 0 0.0 1.0 0.00 0.00 0.00 86 1018.9
20260508084547 49 0 0.0 0.0 0.00 0.00 0.00 85 1018.8
20260508083050 49 0 0.0 0.0 0.00 0.00 0.00 85 1018.7
20260508081607 49 0 0.0 1.0 0.00 0.00 0.00 84 1018.5
20260508080048 49 0 0.0 0.0 0.00 0.00 0.00 82 1018.5
20260508074544 50 0 0.0 0.0 0.00 0.00 0.00 80 1018.4
20260508073046 51 0 0.0 0.0 0.00 0.00 0.00 79 1018.3
20260508071545 52 0 0.0 0.0 0.00 0.00 0.00 77 1018.2
20260508070050 54 0 0.0 0.0 0.00 0.00 0.00 77 1018.0
20260508064543 55 0 0.0 0.0 0.00 0.00 0.00 76 1017.9
20260508063054 56 0 0.0 2.0 0.00 0.00 0.00 73 1018.0
20260508061549 56 0 0.0 1.0 0.00 0.00 0.00 73 1018.1
20260508060100 56 0 0.0 0.0 0.00 0.00 0.00 70 1018.1
20260508054633 57 0 0.0 1.0 0.00 0.00 0.00 68 1018.1
20260508053052 57 0 0.0 2.0 0.00 0.00 0.00 67 1017.9
20260508051549 57 0 0.0 2.0 0.00 0.00 0.00 67 1017.8
20260508050050 58 0 0.0 0.0 0.00 0.00 0.00 73 1017.8
20260508044547 58 0 0.0 1.0 0.00 0.00 0.00 77 1017.7
20260508043042 59 0 0.0 2.0 0.00 0.00 0.00 77 1017.5
20260508041545 60 0 0.0 0.0 0.00 0.00 0.00 75 1017.3
20260508040049 60 0 0.0 1.0 0.00 0.00 0.00 74 1017.1
20260508034552 61 0 0.0 1.0 0.00 0.00 0.00 73 1016.7
20260508033047 63 0 0.0 1.0 0.00 0.00 0.00 70 1016.4
20260508031552 64 0 0.0 0.0 0.00 0.00 0.00 67 1016.1
20260508030047 65 0 0.0 0.0 0.00 0.00 0.00 64 1016.0
20260508024554 66 0 0.0 0.0 0.00 0.00 0.00 58 1015.9
20260508023045 68 299 0.0 1.0 0.00 0.00 0.00 56 1015.9
20260508021540 69 299 0.0 1.0 0.00 0.00 0.00 54 1015.9
20260508020048 70 0 0.0 1.0 0.00 0.00 0.00 52 1016.0
20260508014542 72 0 0.0 3.0 0.00 0.00 0.00 49 1016.1
20260508013046 72 32 0.0 1.0 0.00 0.00 0.00 49 1016.3
20260508011542 72 34 1.0 3.0 0.00 0.00 0.00 46 1016.4
20260508010052 72 92 0.0 4.0 0.00 0.00 0.00 44 1016.6
20260508004548 72 26 0.0 4.0 0.00 0.00 0.00 45 1016.7
20260508003053 71 0 0.0 3.0 0.00 0.00 0.00 46 1016.8
20260508001543 71 0 1.0 3.0 0.00 0.00 0.00 43 1016.8
20260508000049 71 69 2.0 4.0 0.00 0.00 0.00 47 1017.0
20260507234549 71 19 2.0 5.0 0.00 0.00 0.00 46 1017.3